Hourly Data Report for July 22, 2021

MANIWAKI AIRPORT
QUEBEC
Current Station Operator: ECCC - MSC

46°16'29.000" N
75°59'31.000" W
199.70 m
7034482
71721
WMJ

Download Data

Hourly Data (July 2021)
Hourly Data Report for July 22, 2021
TIME
LST
Temp Definition
°C
Dew Point Definition
°C
Rel Hum Definition
%
Precip. Amount Definition
mm

Wind Dir Definition
10's deg

Wind Spd Definition
km/h
Visibility Definition
km
Stn Press Definition
kPa
Hmdx Definition


Wind Chill Definition


Weather Definition


00:00 13.2 10.5 84 0.0 5 2   99.38     LegendNANA
01:00 13.5 11.2 86 0.0 15 2   99.39     LegendNANA
02:00 13.0 11.2 89 0.0   0   99.39     LegendNANA
03:00 11.3 10.3 94 0.0   0   99.39     LegendNANA
04:00 9.7 9.2 96 0.0 34 1   99.42     LegendNANA
05:00 9.9 9.6 98 0.0 0 1   99.47     LegendNANA
06:00 10.9 10.3 96 0.0   0   99.49     LegendNANA
07:00 14.5 11.2 80 0.0 16 1   99.53     LegendNANA
08:00 17.7 10.9 65 0.0 33 4   99.54     LegendNANA
09:00 19.7 11.8 60 0.0 36 8   99.55     LegendNANA
10:00 21.5 11.2 52 0.0 1 8   99.53     LegendNANA
11:00 22.5 10.6 47 0.0 35 13   99.54     LegendNANA
12:00 23.0 11.3 48 0.0 33 11   99.52 25   LegendNANA
13:00 23.0 10.7 46 0.0 31 12   99.49 25   LegendNANA
14:00 23.0 11.5 48 0.0 32 16   99.49 25   LegendNANA
15:00 21.7 12.6 56 0.0 26 8   99.46     LegendNANA
16:00 20.9 13.2 61 0.0 15 5   99.50     LegendNANA
17:00 18.3 14.8 80 0.0 27 11   99.50     LegendNANA
18:00 18.0 13.2 73 0.0 28 10   99.56     LegendNANA
19:00 17.7 14.5 81 0.0   0   99.61     LegendNANA
20:00 15.7 12.7 82 0.0 3 2   99.63     LegendNANA
21:00 14.7 13.3 91 0.0 25 3   99.65     LegendNANA
22:00 13.7 13.2 97 0.0 21 2   99.67     LegendNANA
23:00 12.3 11.9 97 0.0   0   99.66     LegendNANA

Notes on Data Quality.

Legend

  • E = Estimated
  • M = Missing
  • NA = Not Available*
  • [empty] = Indicates an unobserved value
Date modified: